Temperature
9 8 7 8 9 9 9 9 9 9 10 9 8 9 9 10 9 9 9 10 10 10 10 10 10 10 10 10 10 10 10 10 9 9 9 9 9 9 9 9 9 9 8 8
7 8 9 9 9 9 9 9 8 9 9 9 8 8 9 9 8 9 9 9 9 9 10 10 10 10 10 10 10 9 9 9 9 9 9 9 9 8 8 8 8 8 8 8
8 8 9 9 9 9 8 8 8 8 8 9 8 8 8 8 9 9 9 9 9 9 9 9 10 9 9 9 9 9 9 9 9 9 9 8 8 8 8 8 8 8 8 8
7 8 9 9 8 8 8 9 8 8 7 6 8 6 7 7 7 7 7 8 8 9 9 9 9 9 9 9 9 9 9 9 8 8 8 8 8 8 7 7 7 7 7 7
7 8 8 8 8 8 8 9 8 8 7 6 6 6 6 7 7 6 6 7 8 8 8 9 9 9 9 8 9 9 8 8 8 8 8 7 7 7 7 7 7 7 7 7
7 8 8 8 8 8 8 8 7 6 6 6 6 6 6 6 7 7 6 7 7 8 8 8 8 8 8 8 8 8 8 8 8 7 7 7 7 7 7 6 6 6 6 6
6 7 8 8 8 7 7 6 6 6 5 6 6 6 6 6 6 6 6 6 7 7 7 7 8 7 7 7 7 7 7 7 7 7 7 6 6 6 6 6 6 6 6 6
5 5 7 7 7 6 6 7 6 6 6 5 6 5 6 6 6 6 6 6 6 6 7 7 7 7 7 7 7 7 7 7 6 6 6 6 6 6 6 5 5 5 5 5
4 5 6 7 7 7 6 6 6 5 5 5 5 5 5 6 5 5 5 5 5 6 6 6 6 6 6 6 6 6 6 6 6 6 6 5 5 5 5 5 5 5 5 5
5 4 5 6 7 7 7 6 5 5 5 5 5 5 5 5 5 4 4 4 5 5 5 5 5 5 6 6 6 5 5 5 5 5 5 5 5 5 5 5 5 5 5 5
4 4 4 5 5 5 5 5 5 4 5 5 5 5 5 5 5 4 4 4 5 5 5 5 4 5 5 5 5 5 5 5 5 5 5 5 5 4 4 4 4 4 4 4
3 2 2 3 5 5 5 5 4 4 4 4 4 4 5 4 4 4 4 4 4 4 4 4 4 4 4 4 4 4 4 4 4 4 4 4 4 4 4 4 4 4 4 4
3 2 2 3 4 4 4 4 4 4 3 3 3 4 4 4 3 3 3 4 4 3 3 3 3 3 3 3 3 3 3 3 3 3 3 3 4 4 4 4 3 3 3 3
3 1 2 2 3 2 3 3 3 3 3 3 3 3 4 3 3 2 2 3 3 3 3 3 2 2 3 3 3 3 3 3 3 3 3 3 3 3 3 3 3 3 3 3
1 1 1 2 3 2 3 3 3 3 3 3 3 3 3 2 2 2 2 2 2 2 2 2 2 2 2 2 2 2 3 2 2 2 2 2 2 2 2 2 2 3 3 3
0 0 1 1 2 2 2 2 2 3 3 3 2 2 2 2 2 1 1 1 1 1 1 1 1 1 1 1 1 2 2 2 2 2 2 2 2 2 2 2 2 2 2 2
-1 -0 -0 0 1 2 1 1 2 2 1 2 2 1 1 1 1 0 1 1 0 0 0 0 1 1 1 1 1 1 1 1 1 1 1 1 1 1 1 1 1 1 1 1
-1 -1 -1 -0 0 0 1 1 1 1 0 0 0 0 0 0 0 0 1 0 0 -0 -0 -0 0 0 0 0 1 1 1 1 0 0 0 0 1 1 1 1 1 1 1 1
-1 -1 -1 -1 -1 0 1 0 -0 -0 -0 -1 -1 -0 -0 -0 -0 -0 -0 -0 -0 -0 -0 -1 -0 -0 -0 -0 -0 -0 -0 -0 -0 -0 0 0 0 0 0 0 0 0 0 0
-1 -1 -2 -1 -1 -0 -0 -1 -0 0 -1 -1 -2 -1 -1 -1 -1 -1 -1 -1 -1 -1 -1 -1 -1 -1 -1 -1 -1 -1 -1 -1 -1 -0 -0 -0 -0 -0 -0 -0 -0 -0 -0 -0
-2 -3 -3 -2 -2 -1 -2 -2 -0 -1 -1 -2 -2 -2 -2 -2 -2 -2 -2 -2 -2 -2 -2 -2 -2 -2 -2 -2 -2 -1 -1 -1 -1 -1 -1 -1 -1 -1 -1 -1 -1 -1 -1 -1
-3 -3 -3 -3 -3 -2 -2 -2 -2 -2 -2 -2 -2 -2 -3 -3 -3 -2 -2 -2 -2 -2 -2 -2 -2 -2 -2 -2 -2 -2 -2 -2 -2 -2 -1 -1 -1 -1 -1 -1 -1 -1 -1 -1
-4 -3 -3 -3 -3 -3 -3 -3 -2 -2 -3 -3 -3 -3 -3 -3 -3 -3 -3 -3 -3 -3 -3 -3 -3 -3 -3 -3 -3 -3 -2 -2 -2 -2 -2 -2 -2 -2 -2 -2 -2 -2 -2 -2
-4 -4 -4 -4 -4 -4 -3 -3 -3 -3 -3 -3 -3 -3 -3 -4 -4 -4 -4 -4 -4 -4 -4 -3 -3 -3 -3 -3 -3 -3 -3 -3 -3 -3 -3 -2 -3 -3 -3 -3 -3 -3 -3 -3
-5 -5 -5 -5 -5 -4 -4 -4 -4 -4 -4 -4 -4 -4 -4 -4 -4 -5 -5 -5 -5 -5 -4 -4 -4 -4 -4 -4 -4 -4 -4 -3 -3 -3 -3 -3 -3 -3 -3 -3 -3 -4 -3 -4
-6 -5 -5 -5 -5 -5 -5 -5 -4 -5 -5 -5 -5 -5 -5 -5 -5 -5 -5 -5 -5 -5 -5 -4 -4 -4 -4 -4 -4 -4 -4 -4 -4 -4 -4 -4 -4 -4 -4 -4 -4 -4 -4 -4
Wind_Speed
1 2 5 9 9 6 4 5 6 6 4 4 9 12 10 6 5 6 6 6 6 6 4 4 3 3 3 2 2 2 2 2 3 3 2 2 2 1 1 1 2 3 4 4
2 6 9 5 5 4 4 5 6 5 3 4 7 12 9 7 7 8 8 7 6 4 3 3 3 2 3 2 2 2 2 2 3 3 3 2 2 2 1 0 1 2 3 4
7 6 4 4 3 5 6 7 6 6 4 3 4 8 6 4 3 4 4 5 6 6 6 5 4 3 3 3 3 2 3 2 2 3 3 2 2 1 1 0 1 1 2 3
5 4 2 4 6 6 8 6 6 5 2 4 2 5 7 4 3 3 3 3 5 5 4 5 5 4 4 3 3 2 3 3 2 3 4 5 3 2 2 2 1 1 1 2
5 3 3 5 6 6 6 4 5 5 4 3 3 4 8 2 3 5 4 4 4 4 5 4 5 5 3 3 3 2 2 3 3 3 4 4 3 2 1 1 1 0 0 1
5 3 3 4 3 3 1 1 2 2 2 5 6 6 7 3 5 4 4 3 3 3 3 3 3 3 2 2 2 3 3 2 3 3 3 4 4 3 3 2 1 1 1 1
5 4 3 1 0 1 2 3 1 2 2 7 3 5 6 4 3 4 5 4 2 3 3 3 3 3 2 2 2 3 3 2 2 2 2 3 3 4 4 3 2 2 1 1
2 6 3 2 3 4 4 5 5 5 5 4 2 5 5 3 2 1 3 3 3 3 3 3 3 3 2 2 2 3 3 2 2 2 1 2 2 2 2 2 2 2 2 2
3 6 4 3 2 4 3 4 4 3 2 3 4 4 4 2 4 4 3 4 3 2 3 3 3 3 3 2 2 2 3 2 2 2 2 2 2 1 1 1 1 1 1 1
3 5 5 3 1 1 4 4 2 3 4 5 4 4 3 3 2 1 1 1 1 1 2 2 3 3 2 2 2 3 3 3 2 2 2 2 1 1 1 1 1 0 0 0
1 3 4 2 3 4 2 2 3 3 3 4 4 4 3 3 3 2 2 1 2 2 2 3 3 3 3 3 3 3 3 3 3 2 2 2 1 1 1 1 1 0 0 1
2 1 5 6 4 2 3 4 4 4 5 3 3 4 3 2 1 1 1 1 1 2 3 4 4 4 4 4 4 3 3 3 2 2 2 1 1 1 1 0 1 0 1 1
2 1 3 4 2 2 1 1 2 2 2 4 4 4 3 4 4 3 2 1 1 3 4 4 4 4 3 3 3 3 3 2 2 2 2 2 1 1 0 0 0 1 1 1
2 3 5 7 5 3 4 5 3 2 3 5 6 6 5 4 3 3 2 1 2 3 4 4 3 2 2 2 2 2 2 2 2 2 2 1 1 1 1 1 1 0 0 1
1 4 6 9 8 5 6 6 6 6 6 6 6 6 5 5 3 2 1 2 3 3 3 3 2 2 2 2 2 2 2 2 2 2 1 1 1 1 1 1 1 1 0 0
1 3 4 6 5 5 6 6 6 7 6 6 5 5 6 4 3 3 2 2 2 2 2 1 2 2 1 1 1 2 2 2 2 1 1 1 1 1 1 1 1 1 1 1
2 2 2 6 6 3 4 4 4 3 2 3 5 6 5 4 3 2 2 2 2 1 1 1 1 1 1 1 0 1 1 2 2 1 1 1 0 1 1 1 1 1 1 1
4 3 2 3 2 5 3 0 1 2 1 2 2 4 4 4 2 2 2 2 1 2 1 1 1 2 2 1 1 1 1 1 2 2 1 1 0 1 1 1 1 1 1 1
6 4 3 2 3 5 3 3 2 2 1 3 3 5 6 4 3 3 4 3 2 2 1 1 1 2 2 2 1 1 2 2 2 2 2 2 1 1 1 1 1 1 1 1
1 2 2 2 3 3 3 7 7 1 1 5 4 4 5 4 2 3 5 4 3 3 2 2 3 3 2 2 2 2 2 2 2 3 3 2 1 1 1 2 2 1 1 1
1 0 2 3 4 3 4 8 4 2 4 5 4 4 3 2 3 3 3 3 2 3 3 3 3 2 3 2 2 2 2 2 3 3 3 3 2 2 1 1 1 1 1 1
1 1 1 1 2 4 5 4 2 2 2 3 4 4 3 3 3 3 3 3 3 3 3 3 3 3 3 3 2 2 3 3 3 3 3 3 3 2 2 1 1 1 1 1
1 2 2 3 3 2 2 1 2 2 2 3 4 4 3 3 3 4 4 3 3 3 3 3 2 3 3 3 3 3 4 3 3 3 3 3 3 2 2 1 1 1 1 1
3 2 0 1 2 3 4 3 4 3 3 4 3 3 3 3 3 3 3 3 3 3 3 3 3 3 4 4 4 3 4 3 3 3 3 3 3 3 3 2 1 1 1 1
3 2 2 2 3 3 3 4 4 4 4 4 4 4 3 3 3 2 3 3 3 3 3 3 3 3 3 4 4 4 4 4 3 3 3 3 3 2 2 2 2 2 2 2
2 2 2 4 4 3 5 5 5 4 5 5 5 5 4 3 2 3 2 2 3 3 3 3 4 4 4 4 5 5 5 4 3 3 3 3 3 2 2 2 3 5 4 4
Wind_Direction
151 126 207 213 208 212 197 211 244 247 228 212 238 256 263 245 222 218 216 209 209 210 210 186 170 158 137 125 135 156 155 162 152 149 152 148 155 149 137 123 144 150 151 155
61 233 231 213 208 227 235 247 258 279 263 228 258 268 266 242 221 212 210 210 209 208 196 186 166 150 145 147 151 164 165 166 167 168 170 168 164 160 175 135 98 138 149 154
209 239 223 192 208 229 246 230 239 257 301 278 286 290 265 265 229 222 209 204 200 195 195 190 176 170 159 161 178 183 172 161 162 149 137 120 100 88 95 126 141 93 134 134
245 261 227 215 224 212 246 230 227 239 238 262 205 276 278 256 260 238 226 206 206 200 187 182 176 170 175 187 182 168 162 152 149 142 147 149 156 166 189 182 167 90 97 115
254 241 217 231 234 202 228 240 232 231 209 248 230 226 281 284 254 249 231 219 210 192 173 170 171 166 167 170 159 145 140 139 135 138 153 157 158 166 148 150 131 110 14 133
256 261 218 230 244 209 217 40 5 43 126 243 221 198 273 251 237 237 224 224 204 177 162 156 148 128 126 132 131 124 123 134 142 140 145 156 160 163 150 155 179 207 238 229
296 279 267 191 101 8 80 101 7 326 244 245 214 201 248 277 268 216 200 200 183 154 140 138 134 128 132 126 132 128 124 121 138 142 145 158 169 173 173 181 191 202 221 243
274 280 253 232 200 205 211 173 184 214 229 267 249 222 252 293 316 108 138 141 127 135 140 145 148 143 133 111 115 122 123 118 112 122 132 133 148 159 165 177 192 207 218 229
227 264 298 274 244 168 187 218 196 174 227 245 253 271 301 6 29 48 80 104 124 148 145 141 134 126 120 111 105 117 117 111 104 106 114 119 118 126 144 164 187 204 222 207
212 262 276 289 355 252 186 175 127 172 209 239 261 249 242 258 279 13 50 101 115 112 100 98 117 114 108 105 95 86 84 95 100 103 106 96 109 119 125 141 161 155 271 134
288 244 286 303 211 213 191 192 194 194 209 206 239 263 255 235 218 191 199 176 159 150 126 110 104 92 82 71 72 78 78 67 60 66 94 88 89 97 107 155 198 211 327 221
321 231 261 258 261 235 190 197 174 197 240 225 225 262 322 315 289 167 163 120 111 110 102 96 99 91 81 74 65 64 67 63 50 42 68 84 86 100 114 164 226 202 223 243
320 257 297 318 309 1 287 253 221 213 204 213 219 251 343 23 28 40 50 39 70 101 96 85 86 86 82 76 67 57 52 50 42 47 56 63 55 60 112 246 244 214 214 240
319 221 221 235 255 265 274 280 272 204 219 240 236 249 298 334 342 357 11 28 85 104 105 95 88 85 79 72 71 60 36 22 32 47 63 61 38 7 337 344 8 344 200 204
48 248 252 264 270 258 257 270 261 237 230 231 252 250 279 299 293 302 350 48 82 85 86 85 83 72 64 56 44 40 24 10 15 29 39 24 7 21 25 19 15 21 44 92
353 260 276 274 267 267 275 278 256 248 244 239 252 270 297 309 356 18 22 55 71 67 59 61 65 64 57 59 34 14 2 353 1 354 343 340 17 29 29 16 8 10 5 353
247 245 274 267 280 294 269 273 247 226 243 225 245 270 316 337 353 333 339 44 52 35 20 47 61 49 338 308 335 330 325 344 358 337 324 343 9 13 344 4 20 358 337 340
209 233 241 265 308 243 240 216 178 171 34 16 351 334 324 309 308 360 41 59 12 342 352 2 7 3 351 352 359 355 3 5 359 350 334 331 330 326 331 351 327 317 324 317
207 201 224 227 245 262 303 342 328 239 254 353 338 330 336 338 343 1 14 18 353 324 334 354 4 1 2 1 359 11 12 7 1 340 331 323 304 293 297 295 297 304 317 319
109 168 206 231 238 249 296 315 311 192 253 345 350 328 327 1 338 299 336 347 1 14 19 24 29 26 18 354 4 28 12 4 340 326 324 333 322 285 270 269 280 293 289 290
11 335 222 236 244 265 310 320 354 124 282 327 343 334 340 323 269 288 323 347 22 31 26 30 33 27 7 5 31 30 9 335 319 326 332 335 330 309 272 270 286 275 292 302
183 194 231 214 237 271 335 18 54 265 319 342 348 348 343 332 342 6 21 26 28 27 24 23 23 12 7 15 29 16 346 330 335 343 341 333 324 319 327 298 306 303 270 271
212 208 211 202 219 289 353 344 309 325 338 339 347 342 344 358 360 4 14 20 19 21 19 14 21 18 13 14 21 2 336 342 349 354 346 334 332 333 333 319 310 320 302 268
313 339 207 263 286 328 336 340 349 350 335 331 342 339 350 353 358 3 7 9 11 17 15 15 25 23 10 4 8 355 341 347 356 354 345 341 346 345 346 340 336 323 309 295
293 327 323 281 295 318 334 337 332 342 351 349 346 347 341 348 349 350 355 356 1 7 6 12 15 9 358 359 2 357 354 0 0 352 348 348 349 344 346 349 342 327 305 288
304 271 255 263 274 277 291 313 333 345 345 342 342 341 344 346 337 348 351 352 360 3 1 4 5 3 358 359 357 353 352 357 357 349 347 345 344 340 339 341 348 359 352 350
Height
1498 1502 1503 1500 1499 1499 1501 1503 1503 1499 1495 1497 1496 1492 1488 1486 1487 1487 1487 1487 1488 1488 1490 1491 1492 1492 1493 1494 1495 1496 1497 1497 1498 1499 1500 1501 1502 1503 1504 1505 1506 1507 1508 1509
1501 1501 1495 1495 1497 1499 1500 1501 1501 1498 1495 1495 1494 1490 1485 1483 1482 1482 1483 1484 1485 1486 1487 1488 1489 1489 1490 1491 1492 1493 1494 1495 1495 1496 1497 1498 1500 1500 1501 1502 1503 1504 1505 1506
1498 1495 1492 1494 1496 1498 1498 1499 1499 1499 1496 1494 1494 1490 1483 1480 1479 1479 1479 1480 1481 1482 1483 1484 1485 1486 1487 1488 1489 1490 1491 1492 1493 1494 1495 1496 1497 1498 1499 1500 1500 1501 1502 1503
1496 1492 1492 1493 1494 1494 1496 1492 1494 1495 1499 1502 1497 1501 1483 1480 1478 1477 1477 1477 1478 1479 1480 1481 1482 1483 1484 1485 1487 1487 1488 1489 1490 1491 1492 1493 1494 1494 1495 1497 1498 1499 1500 1501
1494 1491 1491 1491 1490 1490 1491 1489 1491 1492 1496 1500 1498 1500 1487 1480 1479 1476 1475 1475 1475 1476 1477 1478 1479 1480 1482 1483 1484 1485 1486 1487 1488 1489 1489 1490 1491 1492 1493 1494 1495 1496 1497 1498
1492 1490 1489 1489 1488 1488 1489 1490 1492 1495 1498 1499 1493 1498 1488 1482 1475 1472 1472 1472 1472 1474 1475 1476 1478 1479 1480 1481 1482 1483 1484 1484 1485 1486 1487 1488 1489 1490 1490 1491 1492 1493 1494 1495
1494 1490 1488 1487 1488 1489 1490 1496 1502 1502 1502 1494 1488 1490 1485 1475 1471 1470 1470 1470 1471 1472 1473 1475 1476 1477 1478 1479 1480 1481 1481 1482 1483 1484 1485 1486 1487 1488 1488 1489 1489 1490 1491 1491
1500 1497 1488 1486 1487 1489 1490 1491 1499 1501 1499 1495 1489 1488 1480 1472 1469 1468 1468 1469 1471 1472 1472 1473 1474 1475 1476 1477 1478 1479 1479 1480 1481 1482 1483 1484 1485 1485 1486 1486 1487 1487 1488 1489
1501 1496 1487 1485 1484 1485 1488 1491 1490 1497 1498 1497 1490 1485 1477 1471 1470 1469 1469 1469 1470 1471 1471 1472 1473 1474 1475 1476 1476 1477 1478 1479 1480 1480 1481 1482 1483 1483 1483 1484 1485 1485 1485 1486
1497 1498 1489 1486 1484 1484 1485 1487 1493 1495 1494 1490 1486 1485 1480 1474 1472 1471 1471 1470 1470 1471 1471 1472 1472 1473 1474 1475 1476 1477 1477 1478 1478 1479 1480 1480 1481 1481 1482 1482 1483 1483 1483 1484
1497 1499 1493 1488 1486 1486 1487 1487 1487 1490 1490 1489 1489 1485 1474 1472 1470 1470 1470 1470 1470 1470 1470 1471 1472 1473 1474 1474 1475 1476 1476 1477 1477 1478 1478 1479 1479 1479 1480 1480 1480 1480 1481 1481
1498 1500 1498 1490 1484 1482 1483 1484 1486 1489 1488 1488 1486 1485 1471 1470 1469 1469 1469 1469 1469 1470 1470 1470 1471 1472 1473 1473 1474 1475 1475 1475 1476 1476 1477 1477 1477 1478 1478 1478 1478 1478 1478 1478
1499 1501 1499 1492 1490 1486 1485 1484 1484 1485 1487 1488 1488 1484 1473 1471 1470 1470 1470 1469 1469 1470 1470 1470 1471 1471 1472 1473 1473 1473 1474 1474 1474 1475 1475 1475 1475 1475 1476 1476 1476 1476 1476 1476
1497 1499 1499 1495 1489 1489 1488 1485 1483 1485 1488 1486 1481 1478 1475 1473 1473 1472 1470 1469 1469 1469 1470 1470 1471 1471 1472 1472 1472 1473 1473 1473 1473 1473 1473 1473 1473 1473 1473 1474 1473 1473 1473 1473
1497 1498 1494 1490 1487 1486 1485 1483 1482 1482 1481 1481 1478 1477 1475 1474 1473 1472 1471 1470 1469 1470 1470 1470 1471 1471 1471 1471 1472 1472 1472 1472 1471 1471 1471 1471 1471 1471 1471 1471 1471 1471 1471 1471
1497 1497 1493 1490 1484 1484 1483 1481 1480 1478 1478 1477 1476 1477 1475 1474 1473 1472 1471 1470 1470 1470 1470 1471 1471 1471 1471 1471 1470 1471 1470 1470 1470 1470 1469 1469 1469 1469 1469 1469 1469 1468 1468 1468
1498 1497 1495 1491 1486 1483 1484 1482 1479 1479 1478 1478 1477 1478 1475 1474 1473 1472 1471 1471 1470 1470 1470 1469 1469 1470 1470 1470 1469 1469 1469 1469 1468 1468 1468 1468 1467 1467 1467 1466 1466 1466 1466 1466
1496 1496 1495 1492 1489 1489 1483 1479 1478 1479 1479 1479 1478 1477 1475 1474 1472 1472 1471 1471 1470 1470 1469 1469 1469 1468 1469 1468 1468 1468 1468 1467 1467 1466 1466 1466 1465 1465 1464 1464 1463 1463 1463 1463
1490 1493 1494 1492 1490 1484 1481 1479 1480 1479 1480 1480 1478 1477 1475 1473 1471 1471 1471 1471 1471 1470 1469 1468 1468 1467 1467 1467 1466 1466 1466 1465 1465 1465 1464 1463 1463 1462 1462 1461 1461 1460 1460 1460
1489 1490 1493 1491 1488 1484 1485 1480 1477 1478 1480 1480 1478 1477 1475 1474 1475 1473 1471 1470 1469 1469 1468 1467 1467 1466 1466 1465 1465 1464 1464 1463 1463 1462 1462 1461 1461 1460 1460 1459 1458 1458 1458 1457
1493 1494 1495 1493 1491 1487 1486 1481 1478 1484 1484 1480 1478 1477 1475 1474 1474 1473 1470 1469 1468 1468 1467 1466 1466 1465 1465 1464 1464 1463 1462 1462 1461 1461 1460 1459 1459 1458 1457 1457 1456 1456 1455 1455
1495 1496 1496 1495 1495 1493 1486 1483 1485 1485 1482 1480 1478 1476 1475 1473 1471 1470 1469 1468 1467 1466 1466 1465 1464 1464 1464 1463 1462 1461 1461 1460 1459 1458 1458 1457 1456 1456 1455 1454 1454 1454 1453 1452
1494 1494 1493 1493 1494 1490 1487 1486 1485 1483 1481 1480 1478 1476 1475 1472 1471 1469 1468 1468 1467 1466 1465 1464 1464 1463 1462 1462 1461 1460 1459 1458 1457 1456 1455 1455 1454 1454 1453 1452 1451 1451 1450 1450
1494 1492 1492 1492 1490 1489 1488 1486 1484 1483 1481 1479 1478 1476 1474 1472 1470 1469 1468 1467 1466 1465 1464 1463 1462 1462 1461 1461 1460 1459 1458 1456 1455 1454 1453 1453 1452 1451 1450 1450 1449 1448 1448 1447
1495 1493 1492 1491 1490 1488 1486 1485 1484 1482 1480 1478 1476 1475 1473 1471 1469 1468 1466 1466 1465 1464 1463 1462 1461 1460 1460 1459 1458 1457 1456 1455 1454 1453 1452 1451 1450 1449 1448 1447 1447 1446 1445 1445
1495 1495 1494 1492 1489 1489 1486 1485 1483 1481 1479 1477 1475 1473 1472 1470 1468 1466 1465 1465 1464 1463 1462 1461 1460 1459 1458 1457 1456 1456 1454 1453 1452 1451 1450 1449 1448 1447 1446 1445 1444 1443 1443 1442